Tracking 29528 objects as of 12-Sep-2024
HD Live streaming from Space Station
objects crossing your sky now

ONEWEB-0044

Track ONEWEB-0044 now!
10-day predictions
ONEWEB-0044 is classified as:


NORAD ID: 45150
Int'l Code: 2020-008V
Perigee: 1,227.6 km
Apogee: 1,230.1 km
Inclination: 87.9 °
Period: 109.9 minutes
Semi major axis: 7599 km
RCS: Unknown
Launch date: February 6, 2020
Source: United Kingdom (UK)
Launch site: TYURATAM MISSILE AND SPACE COMPLEX (TTMTR)
Your satellite tracking list
Your tracking list is empty




NASA's NSSDC Master Catalog

Two Line Element Set (TLE):
1 45150U 20008V   24255.76746736 -.00000387  00000-0 -11450-2 0  9992
2 45150  87.8983 164.3044 0001690  66.1761 293.9543 13.10371063224216
Source of the keplerian elements: AFSPC